Weather History for KSNA - June, 2013

Change the Weather History Date:

Monday, June 17, 2013

  Actual Average Record
Temperature  
Mean Temperature 69 °F 67 °F  
Max Temperature 75 °F 74 °F 81 °F (2008)
Min Temperature 62 °F 61 °F 60 °F (1999)
Degree Days  
Heating Degree Days 0 0  
Month to date heating degree days 0 0  
Since 1 June heating degree days 0 0  
Since 1 July heating degree days 1096 1245  
Cooling Degree Days 4 2  
Month to date cooling degree days 42 34  
Year to date cooling degree days 122 101  
Since 1 June cooling degree days 42 34  
Growing Degree Days 18 (Base 50)    
Moisture  
Dew Point 57 °F    
Average Humidity 71    
Maximum Humidity 84    
Minimum Humidity 57    
Precipitation  
Precipitation 0.00 in 0.00 in 0.00 in (2006)
Month to date precipitation 0.00 0.06  
Year to date precipitation 1.96 8.94  
Since 1 July precipitation 4.98  
Snow  
Snow 0.00 in - - ()
Month to date snowfall 0.0  
Year to date snowfall 0.0  
Since 1 June snowfall  
Since 1 July snowfall 0.0  
Snow Depth 0.00 in    
Sea Level Pressure  
Sea Level Pressure 29.94 in    
Wind  
Wind Speed 4 mph (SSW)    
Max Wind Speed 10 mph    
Max Gust Speed -    
Visibility 8 miles    
Events      
T = Trace of Precipitation, MM = Missing Value Source: NWS Daily Summary

Daily Weather History Graph

Daily Weather History Graph

Search for Another Location

Airport or City:

Trip Planner

Search our weather history database for the weather conditions in past years. The results will help you decide how hot, cold, wet, or windy it might be!

Date:

Astronomy

Jun. 17, 2013 Rise Set
Actual Time 5:40 AM PDT 8:04 PM PDT
Civil Twilight 5:11 AM PDT 8:33 PM PDT
Nautical Twilight 4:36 AM PDT 9:08 PM PDT
Astronomical Twilight 3:57 AM PDT 9:48 PM PDT
Moon 2:01 PM PDT (6/17) 1:03 AM PDT (6/17)
Length of Visible Light 15h 21m
Length of Day
14h 23m
First Quarter, 61% of the Moon is Illuminated
Jun 17
First Quarter
Jun 23
Full
Jun 29
Last Quarter
Jul 8
New
Jul 15
First Quarter

Hourly Weather History & Observations

Time (PDT) Temp. Dew Point Humidity Pressure Visibility Wind Dir Wind Speed Gust Speed Precip Events Conditions
12:53 AM 62.1 °F 57.0 °F 84% 29.95 in 8.0 mi SSW 3.5 mph - N/A   Clear
1:33 AM 62.6 °F 57.2 °F 82% 29.95 in 8.0 mi SSW 3.5 mph - N/A   Scattered Clouds
1:42 AM 62.6 °F 57.2 °F 82% 29.95 in 8.0 mi SW 3.5 mph - N/A   Mostly Cloudy
1:53 AM 63.0 °F 57.9 °F 84% 29.95 in 8.0 mi Calm Calm - N/A   Overcast
2:53 AM 63.0 °F 57.9 °F 84% 29.94 in 8.0 mi Calm Calm - N/A   Overcast
3:53 AM 63.0 °F 57.0 °F 81% 29.94 in 9.0 mi Calm Calm - N/A   Overcast
4:53 AM 63.0 °F 57.0 °F 81% 29.94 in 8.0 mi Calm Calm - N/A   Overcast
5:53 AM 63.0 °F 57.0 °F 81% 29.96 in 8.0 mi SSE 4.6 mph - N/A   Overcast
6:10 AM 62.6 °F 57.2 °F 82% 29.96 in 6.0 mi ESE 4.6 mph - N/A   Haze
6:53 AM 62.1 °F 57.0 °F 84% 29.97 in 6.0 mi ESE 4.6 mph - N/A   Haze
7:00 AM 62.6 °F 57.2 °F 82% 29.97 in 6.0 mi Calm Calm - N/A   Haze
7:53 AM 62.1 °F 57.0 °F 84% 29.98 in 6.0 mi SSE 4.6 mph - N/A   Haze
8:53 AM 64.0 °F 57.0 °F 78% 29.99 in 7.0 mi Calm Calm - N/A   Overcast
9:53 AM 66.0 °F 57.0 °F 73% 29.98 in 7.0 mi Calm Calm - N/A   Mostly Cloudy
10:10 AM 66.2 °F 57.2 °F 73% 29.97 in 8.0 mi SE 4.6 mph - N/A   Scattered Clouds
10:53 AM 71.1 °F 57.0 °F 61% 29.97 in 8.0 mi Variable 3.5 mph - N/A   Partly Cloudy
11:53 AM 73.0 °F 57.0 °F 57% 29.97 in 9.0 mi Variable 5.8 mph - N/A   Partly Cloudy
12:53 PM 72.0 °F 57.0 °F 59% 29.96 in 10.0 mi SW 10.4 mph - N/A   Partly Cloudy
1:53 PM 73.0 °F 57.0 °F 57% 29.94 in 9.0 mi SSW 9.2 mph - N/A   Clear
2:53 PM 73.9 °F 57.0 °F 55% 29.93 in 10.0 mi SW 9.2 mph - N/A   Clear
3:53 PM 72.0 °F 57.0 °F 59% 29.92 in 10.0 mi SW 9.2 mph - N/A   Clear
4:53 PM 71.1 °F 57.9 °F 63% 29.91 in 9.0 mi WSW 8.1 mph - N/A   Partly Cloudy
5:53 PM 70.0 °F 57.9 °F 65% 29.90 in 10.0 mi SW 6.9 mph - N/A   Partly Cloudy
6:53 PM 68.0 °F 57.9 °F 70% 29.91 in 9.0 mi WSW 6.9 mph - N/A   Partly Cloudy
7:53 PM 66.9 °F 57.9 °F 73% 29.90 in 9.0 mi SSW 4.6 mph - N/A   Partly Cloudy
8:53 PM 64.9 °F 57.9 °F 78% 29.89 in 9.0 mi SSW 5.8 mph - N/A   Partly Cloudy
9:53 PM 64.0 °F 57.9 °F 80% 29.90 in 9.0 mi SSW 5.8 mph - N/A   Partly Cloudy
10:53 PM 64.0 °F 57.9 °F 80% 29.91 in 9.0 mi SSW 5.8 mph - N/A   Partly Cloudy
11:53 PM 63.0 °F 57.9 °F 84% 29.89 in 8.0 mi SSW 3.5 mph - N/A   Clear